DEBRISSAT-1

Last updated on March 3, 2019, 3:11 a.m. UTC

1 43621U 98067PM  19061.23898920  .23242489  12305-4  32983-2 0  9990
2 43621  51.6125 153.4152 0004233 358.3622   3.0151 16.34053878 26115

Satellite is not in orbit.